CAPE
22 22 17 7 6 6 10 8 27 7 11 5 8 10 25 13 8 6 10 1 0 0 0 0 0 4 0 0 0 0 0 0 0 18 58 130 266 597
13 16 19 20 15 10 17 24 12 24 21 19 18 8 14 7 0 0 0 0 0 0 0 0 0 0 0 0 0 0 0 0 0 1 21 62 221 413
7 16 15 18 20 14 15 16 12 7 16 5 10 9 2 1 0 0 0 0 0 0 0 0 0 0 0 0 0 0 0 0 0 0 13 37 132 260
3 12 17 20 19 17 14 12 14 13 19 13 4 2 6 1 0 0 0 0 0 0 0 0 0 0 0 0 0 0 0 0 0 0 0 1 21 108
2 6 10 19 21 15 11 9 11 10 14 21 13 3 6 2 3 4 5 7 9 0 0 0 0 0 0 0 0 0 0 0 0 0 0 0 0 1
5 6 8 13 18 18 11 9 6 14 19 17 4 6 8 5 16 18 7 15 39 28 11 0 0 0 0 0 0 0 0 0 0 0 0 0 0 0
3 9 12 11 3 5 20 16 5 6 14 14 6 8 2 17 11 11 15 11 27 21 68 39 49 29 5 0 0 0 0 0 0 0 0 0 0 0
2 2 4 3 4 0 0 0 1 11 10 10 7 6 0 9 11 10 15 4 7 39 53 65 31 23 1 4 0 0 0 0 0 0 0 0 1 1
4 3 2 4 2 7 8 0 1 0 0 12 12 2 0 5 9 4 6 9 8 4 6 13 13 4 0 1 0 0 0 0 0 0 0 0 0 0
8 7 9 8 3 2 1 3 14 1 1 2 9 15 13 6 1 2 5 6 5 3 2 8 1 0 2 1 0 1 1 0 0 0 0 0 0 0
1 1 1 2 0 5 15 7 10 1 0 0 0 1 1 3 5 5 4 4 5 5 12 5 0 0 1 0 0 1 2 0 0 0 0 0 0 0
12 8 9 11 13 14 17 13 7 1 0 0 0 3 4 3 2 2 3 3 2 1 2 0 0 0 1 0 0 0 1 1 1 0 0 0 0 3
18 13 14 21 25 19 15 15 16 2 0 0 0 3 3 0 1 1 1 3 0 0 0 0 1 0 1 0 0 1 1 0 0 0 2 1 0 1
18 15 13 19 19 23 21 10 11 10 0 0 0 0 2 1 0 0 0 1 1 1 1 2 0 0 0 0 0 0 0 0 0 0 0 1 3 2
27 23 43 31 21 16 10 10 5 7 0 0 0 0 3 0 0 0 0 0 0 0 0 1 1 0 0 0 0 0 0 0 0 0 0 0 0 0
28 31 33 35 32 20 11 0 1 0 0 0 0 0 0 0 0 1 2 4 2 0 0 0 0 0 0 0 0 0 0 0 0 0 0 0 0 0
31 21 17 14 3 2 0 0 0 0 0 0 0 0 1 1 2 1 3 5 3 1 0 0 1 0 0 0 0 0 0 0 0 0 0 0 0 0
25 14 14 10 4 3 0 0 0 0 0 0 0 0 0 0 1 2 4 4 8 3 2 0 0 0 0 0 2 1 0 0 0 0 0 0 0 0
29 25 10 10 7 1 0 0 0 0 0 1 4 0 1 2 5 2 4 3 3 2 1 0 0 0 1 0 1 4 1 1 1 1 0 0 0 0
26 18 3 7 9 0 0 0 0 0 0 5 7 6 4 6 5 3 3 4 4 3 1 0 0 0 0 0 1 3 0 2 0 0 0 0 0 0
17 11 5 9 8 0 0 0 0 0 0 4 6 5 6 3 1 1 1 0 0 0 0 0 2 0 1 0 0 0 0 0 0 0 0 0 0 0
18 11 6 3 4 1 0 0 0 1 2 5 5 2 1 1 0 0 0 0 0 0 0 2 1 0 0 0 0 0 0 0 0 0 0 0 0 0
12 16 6 4 4 0 0 0 0 1 3 4 3 2 1 1 0 0 0 0 0 0 0 0 0 0 0 0 0 0 0 0 0 0 0 0 0 0
CIN
0 0 0 0 0 0 0 -1 0 -4 0 0 0 0 0 0 -6 0 0 -3 0 0 0 0 0 -28 0 0 0 0 0 0 0 -34 -17 -18 -9 -3
0 0 0 0 0 0 0 0 -1 0 0 0 0 0 0 0 0 0 0 0 0 0 0 0 0 0 0 0 0 0 0 0 0 -30 -44 -96 -17 -5
0 0 0 0 0 0 0 0 0 -1 0 0 0 0 0 0 0 0 0 0 0 0 0 0 0 0 0 0 0 0 0 0 0 0 -62 -120 -76 -22
0 0 0 0 0 0 0 0 0 0 0 0 0 0 0 0 0 0 0 0 0 0 0 0 0 0 0 0 0 0 0 0 0 0 0 -23 -59 -112
0 0 0 0 0 0 0 0 0 0 0 0 0 0 0 0 0 0 0 0 0 0 0 0 0 0 0 0 0 0 0 0 0 0 0 0 0 0
0 0 0 0 0 0 0 0 0 0 0 -1 0 0 0 0 0 0 0 0 0 0 -1 0 0 0 0 0 0 0 0 0 0 0 0 0 0 0
0 0 0 0 -3 -1 0 0 0 0 0 0 0 -1 0 0 0 0 0 0 0 -3 0 0 0 -3 -13 0 0 0 0 0 0 0 0 0 0 0
0 0 0 0 -2 -2 0 0 -6 0 0 0 0 0 0 0 0 0 0 0 0 -2 -2 0 0 0 0 0 0 0 0 0 0 0 0 0 0 0
0 0 0 0 -1 -1 -2 -1 0 0 0 -1 0 0 0 0 0 0 0 0 0 0 0 0 0 0 0 0 0 0 0 0 0 0 0 0 0 0
0 0 0 0 0 -1 -2 -2 0 0 0 -7 -1 0 0 0 0 0 0 0 0 0 0 0 0 0 0 0 0 0 0 0 0 0 0 0 0 0
0 0 0 0 0 -1 -1 0 -3 0 0 0 0 -6 -1 0 0 0 0 0 0 0 -1 0 0 0 0 0 0 0 0 0 0 0 0 0 0 0
0 0 -1 0 0 0 -1 -3 -2 0 -1 0 0 0 0 0 0 0 0 0 0 0 0 0 0 0 0 0 0 0 0 0 0 0 0 0 0 0
0 0 0 0 0 0 0 0 0 -2 -1 0 0 0 0 0 0 0 0 0 0 0 0 0 0 0 0 0 0 0 0 0 0 0 0 0 0 0
0 0 0 0 -1 0 0 0 -10 -1 0 0 0 0 0 0 0 0 0 0 0 0 0 0 0 0 0 0 0 0 0 0 0 0 0 0 0 0
0 0 0 0 0 0 0 0 0 -12 0 0 0 0 0 0 0 0 0 0 0 0 0 0 0 0 0 0 0 0 0 0 0 0 0 0 0 0
0 0 0 0 -3 -1 0 0 0 0 0 0 0 0 0 0 0 0 0 0 0 0 0 0 0 0 0 0 0 0 0 0 0 0 0 0 0 0
0 0 0 0 -1 0 0 0 0 0 0 0 0 0 0 0 0 0 0 0 0 0 0 0 0 0 0 0 0 0 0 0 0 0 0 0 0 0
0 0 0 0 0 -1 0 0 0 0 0 0 0 0 0 0 0 0 0 0 0 0 0 0 0 0 0 0 0 0 0 0 0 0 0 0 0 0
0 0 0 0 0 -2 0 0 0 0 0 0 0 0 0 0 0 0 0 0 0 0 0 0 0 0 0 0 0 0 0 0 0 0 0 0 0 0
0 0 -1 0 0 0 0 0 0 0 0 0 0 0 0 0 0 0 0 0 0 0 0 0 0 0 0 0 0 0 0 0 0 0 0 0 0 0
0 -1 -2 0 0 0 0 0 0 0 0 0 0 0 0 0 0 0 0 0 0 0 0 0 0 0 0 0 0 0 0 0 0 0 0 0 0 0
0 -1 -1 0 0 0 0 0 0 0 0 0 0 0 0 0 0 0 0 0 0 0 0 0 0 0 0 0 0 0 0 0 0 0 0 0 0 0
0 0 0 0 0 0 0 0 0 0 0 0 0 0 0 0 0 0 0 0 0 0 0 0 0 0 0 0 0 0 0 0 0 0 0 0 0 0
Wind_Speed
11 11 10 8 9 7 5 7 6 6 9 9 9 8 6 7 9 12 13 13 10 12 15 16 15 14 13 14 14 13 14 15 15 17 18 18 18 22
10 13 12 10 9 8 8 6 6 7 9 7 8 11 11 10 11 14 15 12 14 15 16 15 16 15 15 15 14 15 15 15 17 19 20 21 21 21
13 14 15 14 10 9 8 6 7 9 9 6 9 12 14 14 13 12 11 13 11 13 15 15 15 16 15 15 15 15 15 16 17 19 21 22 22 21
14 15 16 11 14 13 9 11 8 8 7 11 9 10 13 13 14 15 11 11 12 13 12 13 14 15 15 14 15 16 16 16 16 17 19 21 22 22
14 15 15 15 14 12 12 11 10 7 8 8 9 9 11 11 12 12 13 14 11 14 13 12 15 15 14 12 12 13 14 14 15 16 18 20 20 21
13 14 15 15 16 15 13 13 11 10 8 8 10 9 10 11 8 9 10 10 9 9 10 11 11 9 9 9 9 9 8 12 15 16 17 17 17 18
15 14 14 15 16 15 10 12 12 10 8 7 9 8 10 9 8 6 9 10 11 9 8 7 6 7 6 5 4 4 7 10 11 14 16 16 15 15
14 14 14 15 16 20 21 21 13 11 11 8 8 10 13 9 7 7 8 6 6 6 5 7 4 5 3 2 5 6 8 9 10 10 10 10 11 12
15 14 13 10 14 14 17 23 21 20 17 11 12 14 14 9 7 5 7 8 8 9 6 7 4 4 3 3 5 7 8 9 8 8 7 6 7 8
15 15 15 15 15 14 14 15 14 14 14 11 12 14 12 8 6 6 8 8 9 10 9 7 3 2 3 2 2 8 8 8 6 6 5 5 4 6
12 13 14 15 18 18 12 13 13 11 11 15 14 15 16 14 11 4 6 6 5 6 4 4 3 2 2 1 0 4 10 6 2 1 4 7 7 6
10 11 16 15 19 18 12 12 13 12 10 9 7 11 14 10 10 8 5 7 5 5 3 3 3 4 2 1 0 2 3 9 8 7 6 4 3 3
9 9 9 17 18 18 17 12 13 12 10 8 6 8 7 6 5 5 5 6 4 5 4 3 2 1 1 3 1 1 2 3 3 4 9 9 8 6
11 9 10 16 18 19 17 19 21 18 6 6 5 7 6 6 5 4 4 4 4 6 6 3 4 2 2 1 2 1 2 3 3 3 4 9 14 15
10 13 21 21 22 18 21 22 19 10 7 6 6 7 7 5 4 2 3 3 3 3 3 3 4 3 2 2 3 3 3 2 3 2 3 4 3 3
13 11 14 18 20 18 15 11 9 8 7 7 6 5 3 3 3 4 3 4 2 2 1 5 3 3 1 1 1 4 2 3 2 3 3 4 4 5
18 11 11 10 10 8 6 7 5 5 6 6 5 5 4 4 4 3 2 3 4 1 0 2 5 7 7 3 3 3 4 3 3 2 3 3 4 4
14 11 10 9 10 9 7 7 6 8 6 6 5 5 5 5 5 4 4 5 5 4 3 1 1 1 1 6 12 4 3 3 2 3 2 2 1 1
11 10 10 9 10 9 9 8 8 7 5 6 6 7 5 5 6 6 6 5 5 5 3 1 0 1 1 2 1 12 3 2 2 3 2 1 2 3
9 9 9 10 10 9 8 7 6 5 6 6 6 6 6 5 6 6 6 6 6 5 4 3 1 0 2 2 3 3 6 3 3 4 4 3 3 2
8 9 9 10 10 9 8 7 7 7 6 6 6 6 6 6 5 5 5 7 7 4 5 4 3 3 2 3 5 4 3 7 4 2 3 4 3 3
8 10 9 9 9 9 7 6 6 7 7 7 6 6 6 5 5 6 6 6 4 4 4 4 3 2 0 0 6 6 4 3 3 4 3 4 1 4
10 10 9 9 9 8 7 7 7 7 7 7 7 7 6 6 6 5 5 5 5 6 6 6 4 3 3 4 7 5 3 3 1 3 3 3 3 1
Wind_Direction
262 259 256 257 252 252 252 258 268 275 284 282 287 283 286 291 287 300 295 290 256 243 248 253 254 253 256 259 260 258 257 258 256 257 257 254 247 244
258 258 258 257 254 246 246 255 259 263 269 268 272 289 286 297 295 292 286 284 275 262 258 247 244 243 243 245 247 255 257 255 257 257 256 254 251 247
258 254 257 256 251 250 239 240 251 257 263 275 274 286 293 286 289 289 291 287 277 256 247 247 247 244 241 241 244 250 257 259 256 256 258 257 252 248
261 256 254 253 251 247 245 240 234 243 252 266 271 275 280 288 291 293 286 284 281 272 254 242 244 243 239 235 235 240 247 254 257 257 255 254 255 252
266 261 259 256 251 245 242 244 243 237 247 257 269 273 278 273 285 285 287 288 280 268 255 245 247 246 243 238 235 240 243 250 255 259 260 253 251 256
273 269 263 256 253 249 244 245 247 247 242 251 263 273 275 280 284 289 289 276 286 285 252 250 273 255 237 245 252 261 262 260 262 262 259 252 252 254
280 273 266 261 260 256 249 241 243 246 247 246 260 266 264 274 273 289 290 289 288 290 275 257 249 244 231 202 257 245 289 290 282 265 259 255 248 246
283 276 273 268 256 252 247 242 241 232 238 235 253 254 265 273 274 273 279 305 303 313 274 265 225 239 194 245 10 308 294 298 299 294 272 264 259 250
280 280 276 267 266 261 248 240 236 228 229 240 250 253 266 272 278 279 282 278 268 282 321 272 206 196 157 154 21 332 293 286 296 308 306 291 288 279
286 282 280 275 269 267 258 252 230 227 223 222 234 255 261 274 248 267 278 283 278 271 250 260 182 179 151 169 44 1 307 284 289 295 300 318 345 354
287 285 285 282 275 268 264 256 244 230 222 210 225 250 262 255 250 266 261 265 274 268 222 244 198 149 162 177 332 5 31 21 48 88 100 108 99 96
283 279 277 271 276 270 264 253 246 234 220 205 224 245 251 246 240 234 249 254 257 301 15 272 170 145 227 156 199 358 7 29 51 89 106 108 70 88
283 284 284 285 277 272 268 264 247 243 229 208 214 244 235 226 219 219 226 235 228 249 19 359 312 291 67 135 99 4 6 19 33 39 92 96 92 93
282 282 280 284 287 287 268 261 264 240 203 193 204 235 223 218 205 205 212 234 247 263 310 295 269 212 141 142 155 172 41 21 29 55 26 66 77 83
281 282 285 282 281 281 264 260 258 233 200 184 205 230 227 209 157 183 214 222 243 261 302 271 251 283 181 169 160 165 136 41 10 63 49 41 40 18
282 280 281 283 278 273 277 260 247 216 194 198 206 210 175 167 193 192 203 192 244 225 262 348 296 206 157 109 125 145 117 143 89 56 68 47 50 48
293 287 282 280 279 267 250 242 226 191 184 193 185 170 191 191 200 164 220 192 234 230 155 14 23 66 60 55 92 106 117 94 79 89 71 82 33 31
282 277 273 270 270 263 245 229 214 203 195 189 193 198 201 197 194 181 213 220 224 215 177 147 348 222 92 61 42 97 65 90 74 74 81 91 97 48
270 268 272 267 270 254 237 218 215 210 183 187 203 208 194 192 199 204 208 209 211 199 154 145 108 280 184 99 61 37 97 84 101 74 50 23 138 127
261 268 272 270 270 247 226 216 212 187 185 186 190 189 188 183 187 203 200 199 187 173 160 152 147 229 319 124 139 83 30 131 171 151 144 109 77 69
259 259 266 267 269 243 224 211 197 193 180 169 170 173 175 172 184 182 179 176 163 168 167 158 102 39 112 129 114 131 96 50 55 124 147 143 137 148
260 271 264 261 262 249 220 195 181 175 162 163 167 163 163 157 167 163 164 157 156 146 115 105 133 166 130 154 125 128 135 83 82 76 64 21 45 172
275 267 262 259 258 236 200 181 173 164 156 154 153 154 146 151 151 147 136 127 132 128 134 122 121 89 91 112 115 120 117 135 109 137 116 61 48 313